• In Latvia
  • List of Countries
  • For 7 days
  • Water Temperature
  • Satellite Maps
  • Weather Map
  • Weather Widgets
  • user-avatar
    Login

    Hourly Weather Nagasaki

    Today, 17 July, Tuesday

    Time Temperature Precipitation Wind Pressure Humidity
    00:00 +28°C° 0 mm 0 mps 757 mmHg 72%
    01:00 +27°C° 0 mm 0 mps 757 mmHg 72%
    02:00 +27°C° 0 mm 0 mps 757 mmHg 73%
    03:00 +27°C° 0 mm 0 mps 757 mmHg 74%
    04:00 +27°C° 0 mm 0 mps 757 mmHg 74%
    05:00 +29°C° 0 mm 1 mps 757 mmHg 74%
    06:00 +29°C° 0 mm 1 mps 757 mmHg 74%
    07:00 +31°C° 0 mm 1 mps 757 mmHg 68%
    08:00 +32°C° 0 mm 1 mps 757 mmHg 62%
    09:00 +32°C° 0 mm 0 mps 757 mmHg 55%
    10:00 +36°C° 0 mm 1 mps 757 mmHg 51%
    11:00 +37°C° 0 mm 1 mps 757 mmHg 48%
    12:00 +40°C° 0 mm 1 mps 757 mmHg 44%
    13:00 +40°C° 0 mm 1 mps 756 mmHg 44%
    14:00 +39°C° 0 mm 2 mps 756 mmHg 44%
    15:00 +39°C° 0 mm 2 mps 756 mmHg 45%
    16:00 +38°C° 0 mm 2 mps 756 mmHg 49%
    17:00 +37°C° 0 mm 3 mps 756 mmHg 53%
    18:00 +36°C° 0 mm 3 mps 755 mmHg 57%
    19:00 +34°C° 0 mm 2 mps 755 mmHg 61%
    20:00 +32°C° 0 mm 2 mps 755 mmHg 65%
    21:00 +31°C° 0 mm 2 mps 756 mmHg 68%
    22:00 +30°C° 0 mm 2 mps 756 mmHg 69%
    23:00 +30°C° 0 mm 1 mps 756 mmHg 70%

    Tomorrow, 18 July, Wednesday

    Time Temperature Precipitation Wind Pressure Humidity
    00:00 +30°C° 0 mm 1 mps 756 mmHg 71%
    01:00 +29°C° 0 mm 1 mps 756 mmHg 72%
    02:00 +29°C° 0 mm 1 mps 756 mmHg 73%
    03:00 +29°C° 0 mm 1 mps 756 mmHg 74%
    04:00 +29°C° 0 mm 1 mps 756 mmHg 75%
    05:00 +29°C° 0 mm 1 mps 756 mmHg 75%
    06:00 +29°C° 0 mm 1 mps 756 mmHg 76%
    07:00 +30°C° 0 mm 2 mps 756 mmHg 70%
    08:00 +32°C° 0 mm 2 mps 756 mmHg 64%
    09:00 +35°C° 0 mm 3 mps 756 mmHg 58%
    10:00 +36°C° 0 mm 3 mps 756 mmHg 53%
    11:00 +38°C° 0 mm 3 mps 756 mmHg 48%
    12:00 +39°C° 0 mm 3 mps 756 mmHg 43%
    13:00 +41°C° 0 mm 4 mps 755 mmHg 42%
    14:00 +41°C° 0 mm 4 mps 755 mmHg 41%
    15:00 +41°C° 0 mm 5 mps 755 mmHg 39%
    16:00 +40°C° 0 mm 5 mps 754 mmHg 43%
    17:00 +39°C° 0 mm 5 mps 754 mmHg 47%
    18:00 +37°C° 0 mm 4 mps 754 mmHg 51%
    19:00 +35°C° 0 mm 4 mps 754 mmHg 54%
    20:00 +34°C° 0 mm 3 mps 755 mmHg 58%
    21:00 +32°C° 0 mm 2 mps 755 mmHg 61%
    22:00 +31°C° 0 mm 2 mps 755 mmHg 64%
    23:00 +31°C° 0 mm 2 mps 755 mmHg 66%

    Day after tomorrow, 19 July, Thursday

    Time Temperature Precipitation Wind Pressure Humidity
    00:00 +30°C° 0 mm 2 mps 755 mmHg 69%
    01:00 +30°C° 0 mm 2 mps 755 mmHg 71%
    02:00 +30°C° 0 mm 2 mps 754 mmHg 72%
    03:00 +29°C° 0 mm 2 mps 754 mmHg 74%
    04:00 +29°C° 0 mm 2 mps 754 mmHg 74%
    05:00 +29°C° 0 mm 2 mps 754 mmHg 75%
    06:00 +29°C° 0 mm 2 mps 754 mmHg 76%
    07:00 +31°C° 0 mm 2 mps 755 mmHg 70%
    08:00 +34°C° 0 mm 2 mps 755 mmHg 63%
    09:00 +36°C° 0 mm 2 mps 755 mmHg 57%
    10:00 +38°C° 0 mm 2 mps 755 mmHg 51%
    11:00 +39°C° 0 mm 2 mps 755 mmHg 45%
    12:00 +41°C° 0 mm 2 mps 754 mmHg 39%
    13:00 +42°C° 0 mm 2 mps 754 mmHg 38%
    14:00 +43°C° 0 mm 3 mps 753 mmHg 36%
    15:00 +44°C° 0 mm 4 mps 753 mmHg 35%
    16:00 +42°C° 0 mm 4 mps 753 mmHg 38%
    17:00 +41°C° 0 mm 4 mps 753 mmHg 42%
    18:00 +40°C° 0 mm 4 mps 752 mmHg 46%
    19:00 +38°C° 0 mm 3 mps 753 mmHg 50%
    20:00 +36°C° 0 mm 3 mps 753 mmHg 54%
    21:00 +35°C° 0 mm 2 mps 753 mmHg 58%
    22:00 +34°C° 0 mm 2 mps 753 mmHg 62%
    23:00 +32°C° 0 mm 2 mps 754 mmHg 67%

    20 July, Friday

    Time Temperature Precipitation Wind Pressure Humidity
    00:00 +33°C° 0 mm 3 mps 754 mmHg 71%
    01:00 +31°C° 0 mm 2 mps 753 mmHg 74%
    02:00 +31°C° 0 mm 2 mps 753 mmHg 76%
    03:00 +30°C° 0 mm 2 mps 753 mmHg 78%
    04:00 +30°C° 0 mm 2 mps 753 mmHg 79%
    05:00 +30°C° 0 mm 2 mps 753 mmHg 80%
    06:00 +30°C° 0 mm 1 mps 753 mmHg 81%
    07:00 +32°C° 0 mm 1 mps 753 mmHg 72%
    08:00 +34°C° 0 mm 1 mps 753 mmHg 63%
    09:00 +36°C° 0 mm 1 mps 753 mmHg 54%
    10:00 +37°C° 0 mm 1 mps 753 mmHg 48%
    11:00 +40°C° 0 mm 1 mps 753 mmHg 43%
    12:00 +41°C° 0 mm 1 mps 753 mmHg 38%
    13:00 +41°C° 0 mm 2 mps 753 mmHg 37%
    14:00 +41°C° 0 mm 2 mps 753 mmHg 37%
    15:00 +42°C° 0 mm 3 mps 752 mmHg 36%
    16:00 +40°C° 0 mm 3 mps 752 mmHg 43%
    17:00 +38°C° 0 mm 3 mps 752 mmHg 49%
    18:00 +37°C° 0 mm 3 mps 752 mmHg 55%
    19:00 +36°C° 0 mm 2 mps 752 mmHg 58%
    20:00 +35°C° 0 mm 2 mps 752 mmHg 61%
    21:00 +32°C° 0 mm 1 mps 753 mmHg 64%
    22:00 +32°C° 0 mm 2 mps 753 mmHg 65%
    23:00 +33°C° 0 mm 3 mps 753 mmHg 65%

    21 July, Saturday

    Time Temperature Precipitation Wind Pressure Humidity
    00:00 +33°C° 0 mm 3 mps 753 mmHg 66%
    01:00 +31°C° 0 mm 3 mps 753 mmHg 68%
    02:00 +31°C° 0 mm 3 mps 753 mmHg 70%
    03:00 +30°C° 0 mm 3 mps 752 mmHg 72%
    04:00 +30°C° 0 mm 3 mps 753 mmHg 73%
    05:00 +30°C° 0 mm 3 mps 753 mmHg 73%
    06:00 +30°C° 0 mm 3 mps 753 mmHg 74%
    07:00 +33°C° 0 mm 3 mps 753 mmHg 67%
    08:00 +34°C° 0 mm 3 mps 753 mmHg 59%
    09:00 +35°C° 0 mm 4 mps 753 mmHg 52%
    10:00 +37°C° 0 mm 3 mps 753 mmHg 46%
    11:00 +38°C° 0 mm 3 mps 753 mmHg 41%
    12:00 +40°C° 0 mm 3 mps 753 mmHg 35%
    13:00 +40°C° 0 mm 3 mps 753 mmHg 35%
    14:00 +42°C° 0 mm 3 mps 752 mmHg 35%
    15:00 +42°C° 0 mm 3 mps 752 mmHg 36%
    16:00 +40°C° 0 mm 3 mps 752 mmHg 40%
    17:00 +40°C° 0 mm 4 mps 752 mmHg 43%
    18:00 +38°C° 0 mm 4 mps 752 mmHg 47%
    19:00 +37°C° 0.1 mm 4 mps 753 mmHg 51%
    20:00 +36°C° 0.1 mm 4 mps 753 mmHg 55%
    21:00 +34°C° 0.1 mm 3 mps 753 mmHg 59%
    22:00 +34°C° 0 mm 3 mps 753 mmHg 61%
    23:00 +33°C° 0 mm 4 mps 753 mmHg 64%

    22 July, Sunday

    Time Temperature Precipitation Wind Pressure Humidity
    00:00 +33°C° 0 mm 4 mps 753 mmHg 66%
    01:00 +32°C° 0 mm 4 mps 753 mmHg 67%
    02:00 +31°C° 0 mm 3 mps 753 mmHg 68%
    03:00 +31°C° 0 mm 3 mps 753 mmHg 69%
    04:00 +30°C° 0 mm 3 mps 753 mmHg 70%
    05:00 +30°C° 0 mm 3 mps 753 mmHg 70%
    06:00 +30°C° 0 mm 3 mps 753 mmHg 71%
    07:00 +33°C° 0 mm 3 mps 753 mmHg 65%
    08:00 +34°C° 0 mm 3 mps 753 mmHg 59%
    09:00 +36°C° 0 mm 3 mps 754 mmHg 53%
    10:00 +38°C° 0 mm 2 mps 753 mmHg 48%
    11:00 +40°C° 0 mm 2 mps 753 mmHg 44%
    12:00 +41°C° 0 mm 1 mps 753 mmHg 39%
    13:00 +41°C° 0 mm 2 mps 753 mmHg 39%
    14:00 +42°C° 0 mm 3 mps 752 mmHg 38%
    15:00 +42°C° 0 mm 3 mps 752 mmHg 38%
    16:00 +41°C° 0 mm 4 mps 752 mmHg 43%
    17:00 +38°C° 0 mm 4 mps 752 mmHg 48%
    18:00 +37°C° 0 mm 4 mps 752 mmHg 53%
    19:00 +36°C° 0 mm 4 mps 752 mmHg 57%
    20:00 +35°C° 0 mm 3 mps 753 mmHg 60%
    21:00 +34°C° 0 mm 2 mps 753 mmHg 63%
    22:00 +32°C° 0 mm 2 mps 753 mmHg 65%
    23:00 +32°C° 0 mm 2 mps 753 mmHg 67%
    Show more